Time,TemperatureF,DewpointF,PressureIn,WindDirection,WindDirectionDegrees,WindSpeedMPH,WindSpeedGustMPH,Humidity,HourlyPrecipIn,Conditions,Clouds,dailyrainin,SoftwareType,DateUTC
2013-06-09 00:03:00,76.0,74.0,30.13,East,98,1.0,10.0,92,0.03,,,1.96,,2013-06-09 04:03:00,
2013-06-09 00:12:00,76.0,74.0,30.13,East,98,1.0,10.0,92,0.03,,,1.96,,2013-06-09 04:12:00,
2013-06-09 00:23:00,75.0,73.0,30.14,East,90,0.0,2.0,93,0.06,,,1.99,,2013-06-09 04:23:00,
2013-06-09 00:33:00,75.0,73.0,30.13,North,360,1.0,4.0,94,0.13,,,2.06,,2013-06-09 04:33:00,
2013-06-09 00:43:00,75.0,73.0,30.13,North,360,1.0,4.0,94,0.13,,,2.06,,2013-06-09 04:43:00,
2013-06-09 00:53:00,75.0,73.0,30.13,NE,34,0.0,4.0,94,0.30,,,2.23,,2013-06-09 04:53:00,
2013-06-09 01:02:00,75.0,73.0,30.12,NE,34,0.0,1.0,94,0.28,,,2.25,,2013-06-09 05:02:00,
2013-06-09 01:12:00,75.0,73.0,30.12,NE,34,0.0,1.0,94,0.28,,,2.25,,2013-06-09 05:12:00,
2013-06-09 01:22:00,75.0,73.0,30.11,NE,34,0.0,1.0,94,0.26,,,2.25,,2013-06-09 05:22:00,
2013-06-09 01:32:00,75.0,73.0,30.11,NE,34,0.0,0.0,94,0.18,,,2.25,,2013-06-09 05:32:00,
2013-06-09 01:42:00,75.0,73.0,30.11,NE,34,0.0,0.0,94,0.18,,,2.25,,2013-06-09 05:42:00,
2013-06-09 01:52:00,75.0,73.0,30.10,NE,34,0.0,0.0,94,0.02,,,2.25,,2013-06-09 05:52:00,
2013-06-09 02:02:00,75.0,73.0,30.10,NE,34,0.0,0.0,95,0.00,,,2.25,,2013-06-09 06:02:00,
2013-06-09 02:12:00,75.0,73.0,30.10,NE,34,0.0,0.0,95,0.00,,,2.25,,2013-06-09 06:12:00,
2013-06-09 02:22:00,75.0,73.0,30.09,NE,34,0.0,2.0,95,0.00,,,2.25,,2013-06-09 06:22:00,
2013-06-09 02:32:00,75.0,73.0,30.09,NE,34,0.0,0.0,95,0.00,,,2.25,,2013-06-09 06:32:00,
2013-06-09 02:42:00,75.0,73.0,30.09,NE,34,0.0,0.0,95,0.00,,,2.25,,2013-06-09 06:42:00,
2013-06-09 02:52:00,75.0,73.0,30.08,NE,34,0.0,0.0,94,0.00,,,2.25,,2013-06-09 06:52:00,
2013-06-09 03:02:00,75.0,73.0,30.08,NE,34,0.0,0.0,95,0.00,,,2.25,,2013-06-09 07:02:00,
2013-06-09 03:12:00,75.0,73.0,30.08,NE,34,0.0,0.0,95,0.00,,,2.25,,2013-06-09 07:12:00,
2013-06-09 03:22:00,75.0,73.0,30.08,NE,34,0.0,0.0,94,0.00,,,2.25,,2013-06-09 07:22:00,
2013-06-09 03:32:00,76.0,74.0,30.08,NE,34,0.0,0.0,94,0.00,,,2.25,,2013-06-09 07:32:00,
2013-06-09 03:42:00,76.0,74.0,30.08,NE,34,0.0,0.0,94,0.00,,,2.25,,2013-06-09 07:42:00,
2013-06-09 03:53:00,75.0,73.0,30.07,NE,34,0.0,1.0,94,0.00,,,2.25,,2013-06-09 07:53:00,
2013-06-09 04:02:00,75.0,73.0,30.07,ESE,113,1.0,6.0,94,0.00,,,2.25,,2013-06-09 08:02:00,
2013-06-09 04:12:00,75.0,73.0,30.07,ESE,113,1.0,6.0,94,0.00,,,2.25,,2013-06-09 08:12:00,
2013-06-09 04:22:00,76.0,74.0,30.07,East,101,0.0,4.0,94,0.00,,,2.25,,2013-06-09 08:22:00,
2013-06-09 04:32:00,76.0,74.0,30.07,ESE,109,1.0,4.0,94,0.00,,,2.25,,2013-06-09 08:32:00,
2013-06-09 04:42:00,76.0,74.0,30.07,ESE,109,1.0,4.0,94,0.00,,,2.25,,2013-06-09 08:42:00,
2013-06-09 04:53:00,76.0,74.0,30.06,ESE,111,0.0,3.0,93,0.00,,,2.25,,2013-06-09 08:53:00,
2013-06-09 05:02:00,76.0,74.0,30.06,ESE,113,1.0,4.0,93,0.00,,,2.25,,2013-06-09 09:02:00,
2013-06-09 05:12:00,76.0,74.0,30.06,ESE,113,1.0,4.0,93,0.00,,,2.25,,2013-06-09 09:12:00,
2013-06-09 05:22:00,76.0,74.0,30.06,ESE,117,1.0,6.0,93,0.00,,,2.25,,2013-06-09 09:22:00,
2013-06-09 05:33:00,76.0,74.0,30.06,SE,128,2.0,7.0,92,0.00,,,2.25,,2013-06-09 09:33:00,
2013-06-09 05:43:00,76.0,74.0,30.06,SE,128,2.0,7.0,92,0.00,,,2.25,,2013-06-09 09:43:00,
2013-06-09 05:53:00,76.0,74.0,30.06,SE,125,2.0,5.0,92,0.00,,,2.25,,2013-06-09 09:53:00,
2013-06-09 06:03:00,77.0,74.0,30.06,ESE,113,2.0,4.0,91,0.00,,,2.25,,2013-06-09 10:03:00,
2013-06-09 06:12:00,77.0,74.0,30.06,ESE,113,2.0,4.0,91,0.00,,,2.25,,2013-06-09 10:12:00,
2013-06-09 06:23:00,77.0,74.0,30.07,ESE,106,1.0,8.0,91,0.00,,,2.25,,2013-06-09 10:23:00,
2013-06-09 06:32:00,77.0,74.0,30.07,ESE,123,1.0,6.0,91,0.00,,,2.25,,2013-06-09 10:32:00,
2013-06-09 06:43:00,77.0,74.0,30.07,ESE,123,1.0,6.0,91,0.00,,,2.25,,2013-06-09 10:43:00,
2013-06-09 06:52:00,77.0,74.0,30.07,SE,126,1.0,6.0,91,0.00,,,2.25,,2013-06-09 10:52:00,
2013-06-09 07:02:00,77.0,74.0,30.07,ESE,115,1.0,5.0,91,0.00,,,2.25,,2013-06-09 11:02:00,
2013-06-09 07:12:00,77.0,74.0,30.07,ESE,115,1.0,5.0,91,0.00,,,2.25,,2013-06-09 11:12:00,
2013-06-09 07:22:00,77.0,74.0,30.07,ESE,118,1.0,4.0,91,0.00,,,2.25,,2013-06-09 11:22:00,
2013-06-09 07:32:00,77.0,74.0,30.07,SE,134,3.0,7.0,90,0.00,,,2.25,,2013-06-09 11:32:00,
2013-06-09 07:42:00,77.0,74.0,30.07,SE,134,3.0,7.0,90,0.00,,,2.25,,2013-06-09 11:42:00,
2013-06-09 07:53:00,78.0,75.0,30.08,SE,135,1.0,7.0,90,0.00,,,2.25,,2013-06-09 11:53:00,
2013-06-09 08:02:00,79.0,76.0,30.08,SE,125,1.0,3.0,90,0.00,,,2.25,,2013-06-09 12:02:00,
2013-06-09 08:12:00,79.0,76.0,30.08,SE,125,1.0,3.0,90,0.00,,,2.25,,2013-06-09 12:12:00,
2013-06-09 08:22:00,81.0,77.0,30.08,SSE,149,2.0,8.0,87,0.00,,,2.25,,2013-06-09 12:22:00,
2013-06-09 08:32:00,81.0,77.0,30.08,SSE,149,2.0,8.0,87,0.00,,,2.25,,2013-06-09 12:32:00,
2013-06-09 08:42:00,81.0,77.0,30.08,SSE,149,2.0,8.0,87,0.00,,,2.25,,2013-06-09 12:42:00,
2013-06-09 08:52:00,82.0,77.0,30.08,ESE,118,3.0,9.0,85,0.00,,,2.25,,2013-06-09 12:52:00,
2013-06-09 09:02:00,82.0,77.0,30.09,SE,143,4.0,12.0,84,0.00,,,2.25,,2013-06-09 13:02:00,
2013-06-09 09:12:00,82.0,77.0,30.09,SE,143,4.0,12.0,84,0.00,,,2.25,,2013-06-09 13:12:00,
2013-06-09 09:22:00,83.0,78.0,30.10,ESE,111,3.0,12.0,84,0.00,,,2.25,,2013-06-09 13:22:00,
2013-06-09 09:32:00,84.0,78.0,30.11,East,100,5.0,10.0,81,0.00,,,2.25,,2013-06-09 13:32:00,
2013-06-09 09:42:00,84.0,78.0,30.11,East,100,5.0,10.0,81,0.00,,,2.25,,2013-06-09 13:42:00,
2013-06-09 09:52:00,84.0,77.0,30.11,ESE,119,6.0,12.0,80,0.00,,,2.25,,2013-06-09 13:52:00,
2013-06-09 10:02:00,85.0,78.0,30.11,SE,136,6.0,11.0,79,0.00,,,2.25,,2013-06-09 14:02:00,
2013-06-09 10:12:00,85.0,78.0,30.11,SE,136,6.0,11.0,79,0.00,,,2.25,,2013-06-09 14:12:00,
2013-06-09 10:22:00,84.0,77.0,30.11,ESE,119,5.0,11.0,80,0.00,,,2.25,,2013-06-09 14:22:00,
2013-06-09 10:32:00,85.0,78.0,30.11,SSE,153,6.0,11.0,79,0.00,,,2.25,,2013-06-09 14:32:00,
2013-06-09 10:43:00,85.0,78.0,30.11,SSE,153,6.0,11.0,79,0.00,,,2.25,,2013-06-09 14:43:00,
2013-06-09 10:52:00,84.0,76.0,30.11,SSE,156,5.0,13.0,78,0.00,,,2.25,,2013-06-09 14:52:00,
2013-06-09 11:02:00,85.0,77.0,30.10,ESE,117,4.0,12.0,78,0.00,,,2.25,,2013-06-09 15:02:00,
2013-06-09 11:12:00,85.0,77.0,30.10,ESE,117,4.0,12.0,78,0.00,,,2.25,,2013-06-09 15:12:00,
2013-06-09 11:22:00,85.0,76.0,30.11,SE,132,5.0,14.0,75,0.00,,,2.25,,2013-06-09 15:22:00,
2013-06-09 11:33:00,86.0,76.0,30.10,ESE,110,4.0,10.0,73,0.00,,,1.30,,2013-06-09 15:33:00,
2013-06-09 11:43:00,86.0,76.0,30.10,ESE,110,4.0,10.0,73,0.00,,,1.30,,2013-06-09 15:43:00,
2013-06-09 11:53:00,86.0,76.0,30.11,ESE,115,3.0,13.0,73,0.00,,,1.30,,2013-06-09 15:53:00,
2013-06-09 12:03:00,86.0,75.0,30.11,SE,126,8.0,13.0,70,0.00,,,1.30,,2013-06-09 16:03:00,
2013-06-09 12:13:00,86.0,75.0,30.11,SE,126,8.0,13.0,70,0.00,,,1.30,,2013-06-09 16:13:00,
2013-06-09 12:23:00,86.0,75.0,30.11,East,96,5.0,11.0,70,0.00,,,1.30,,2013-06-09 16:23:00,
2013-06-09 12:33:00,86.0,75.0,30.11,ESE,117,4.0,14.0,70,0.00,,,0.48,,2013-06-09 16:33:00,
2013-06-09 12:42:00,86.0,75.0,30.11,ESE,117,4.0,14.0,70,0.00,,,0.48,,2013-06-09 16:42:00,
2013-06-09 12:53:00,87.0,76.0,30.12,SE,124,5.0,11.0,70,0.00,,,0.48,,2013-06-09 16:53:00,
2013-06-09 13:03:00,87.0,76.0,30.12,SE,132,6.0,13.0,70,0.00,,,0.48,,2013-06-09 17:03:00,
2013-06-09 13:12:00,87.0,76.0,30.12,SE,132,6.0,13.0,70,0.00,,,0.48,,2013-06-09 17:12:00,
2013-06-09 13:22:00,87.0,76.0,30.12,ENE,67,4.0,12.0,71,0.00,,,0.48,,2013-06-09 17:22:00,
2013-06-09 13:32:00,86.0,75.0,30.11,SSE,151,6.0,17.0,69,0.00,,,0.34,,2013-06-09 17:32:00,
2013-06-09 13:42:00,86.0,75.0,30.11,SSE,151,6.0,17.0,69,0.00,,,0.34,,2013-06-09 17:42:00,
2013-06-09 13:52:00,86.0,76.0,30.11,SE,125,5.0,14.0,72,0.00,,,0.34,,2013-06-09 17:52:00,
2013-06-09 14:03:00,86.0,76.0,30.11,ESE,103,5.0,11.0,73,0.00,,,0.34,,2013-06-09 18:03:00,
2013-06-09 14:12:00,86.0,76.0,30.11,ESE,103,5.0,11.0,73,0.00,,,0.34,,2013-06-09 18:12:00,
2013-06-09 14:22:00,86.0,75.0,30.10,East,85,5.0,12.0,71,0.00,,,0.34,,2013-06-09 18:22:00,
2013-06-09 14:33:00,87.0,77.0,30.09,East,98,5.0,11.0,72,0.00,,,0.32,,2013-06-09 18:33:00,
2013-06-09 14:42:00,87.0,77.0,30.09,East,98,5.0,11.0,72,0.00,,,0.32,,2013-06-09 18:42:00,
2013-06-09 14:52:00,87.0,77.0,30.10,SE,133,7.0,12.0,72,0.00,,,0.32,,2013-06-09 18:52:00,
2013-06-09 15:02:00,85.0,76.0,30.10,ESE,113,7.0,17.0,75,0.00,,,0.32,,2013-06-09 19:02:00,
2013-06-09 15:12:00,85.0,76.0,30.10,ESE,113,7.0,17.0,75,0.00,,,0.32,,2013-06-09 19:12:00,
2013-06-09 15:22:00,82.0,77.0,30.10,East,81,4.0,11.0,84,0.01,,,0.33,,2013-06-09 19:22:00,
2013-06-09 15:32:00,82.0,77.0,30.09,ESE,119,3.0,9.0,85,0.01,,,0.33,,2013-06-09 19:32:00,
2013-06-09 15:42:00,82.0,77.0,30.09,ESE,119,3.0,9.0,85,0.01,,,0.33,,2013-06-09 19:42:00,
2013-06-09 15:52:00,83.0,78.0,30.08,ESE,109,6.0,12.0,84,0.01,,,0.33,,2013-06-09 19:52:00,
2013-06-09 16:03:00,84.0,77.0,30.07,SE,124,5.0,12.0,79,0.01,,,0.33,,2013-06-09 20:03:00,
2013-06-09 16:12:00,84.0,77.0,30.07,SE,124,5.0,12.0,79,0.01,,,0.33,,2013-06-09 20:12:00,
2013-06-09 16:22:00,84.0,77.0,30.08,SE,125,5.0,13.0,80,0.00,,,0.33,,2013-06-09 20:22:00,
2013-06-09 16:32:00,85.0,77.0,30.07,SE,129,6.0,13.0,76,0.00,,,0.33,,2013-06-09 20:32:00,
2013-06-09 16:42:00,85.0,77.0,30.07,SE,129,6.0,13.0,76,0.00,,,0.33,,2013-06-09 20:42:00,
2013-06-09 16:52:00,85.0,77.0,30.07,East,100,3.0,13.0,78,0.00,,,0.33,,2013-06-09 20:52:00,
2013-06-09 17:03:00,84.0,76.0,30.06,ESE,103,3.0,12.0,78,0.00,,,0.33,,2013-06-09 21:03:00,
2013-06-09 17:12:00,84.0,76.0,30.06,ESE,107,7.0,13.0,78,0.00,,,0.33,,2013-06-09 21:12:00,
2013-06-09 17:22:00,84.0,76.0,30.06,ESE,107,7.0,13.0,78,0.00,,,0.33,,2013-06-09 21:22:00,
2013-06-09 17:33:00,84.0,77.0,30.06,SE,138,5.0,11.0,79,0.00,,,0.33,,2013-06-09 21:33:00,
2013-06-09 17:43:00,84.0,77.0,30.06,SE,138,5.0,11.0,79,0.00,,,0.33,,2013-06-09 21:43:00,
2013-06-09 17:53:00,83.0,76.0,30.06,SE,126,4.0,13.0,80,0.00,,,0.33,,2013-06-09 21:53:00,
2013-06-09 18:02:00,83.0,76.0,30.05,ESE,113,3.0,9.0,80,0.00,,,0.33,,2013-06-09 22:02:00,
2013-06-09 18:13:00,84.0,77.0,30.05,East,96,6.0,12.0,79,0.00,,,0.33,,2013-06-09 22:13:00,
2013-06-09 18:23:00,84.0,77.0,30.05,East,96,6.0,12.0,79,0.00,,,0.33,,2013-06-09 22:23:00,
2013-06-09 18:33:00,82.0,77.0,30.05,SE,144,4.0,16.0,85,0.02,,,0.35,,2013-06-09 22:33:00,
2013-06-09 18:42:00,82.0,77.0,30.05,SE,144,4.0,16.0,85,0.02,,,0.35,,2013-06-09 22:42:00,
2013-06-09 18:52:00,81.0,76.0,30.05,ESE,116,5.0,11.0,85,0.02,,,0.35,,2013-06-09 22:52:00,
2013-06-09 19:02:00,82.0,76.0,30.05,SE,130,3.0,10.0,83,0.02,,,0.35,,2013-06-09 23:02:00,
2013-06-09 19:12:00,82.0,76.0,30.04,SE,134,5.0,12.0,83,0.02,,,0.35,,2013-06-09 23:12:00,
2013-06-09 19:22:00,82.0,76.0,30.04,SE,134,5.0,12.0,83,0.02,,,0.35,,2013-06-09 23:22:00,
2013-06-09 19:32:00,82.0,77.0,30.05,East,100,4.0,13.0,84,0.00,,,0.35,,2013-06-09 23:32:00,
2013-06-09 19:43:00,82.0,77.0,30.05,East,100,4.0,13.0,84,0.00,,,0.35,,2013-06-09 23:43:00,
2013-06-09 19:52:00,81.0,75.0,30.05,ESE,109,5.0,11.0,83,0.00,,,0.35,,2013-06-09 23:52:00,
2013-06-09 20:02:00,81.0,75.0,30.05,ESE,114,4.0,11.0,83,0.00,,,0.35,,2013-06-10 00:02:00,
2013-06-09 20:13:00,81.0,75.0,30.05,ESE,114,4.0,11.0,83,0.00,,,0.35,,2013-06-10 00:13:00,
2013-06-09 20:22:00,81.0,76.0,30.06,SE,126,1.0,9.0,84,0.00,,,0.35,,2013-06-10 00:22:00,
2013-06-09 20:32:00,80.0,75.0,30.06,ESE,103,2.0,10.0,85,0.00,,,0.35,,2013-06-10 00:32:00,
2013-06-09 20:42:00,80.0,75.0,30.06,ESE,103,2.0,10.0,85,0.00,,,0.35,,2013-06-10 00:42:00,
2013-06-09 20:52:00,80.0,75.0,30.07,SE,130,3.0,11.0,84,0.00,,,0.35,,2013-06-10 00:52:00,
2013-06-09 21:03:00,80.0,75.0,30.07,SE,129,3.0,8.0,85,0.00,,,0.35,,2013-06-10 01:03:00,
2013-06-09 21:12:00,80.0,75.0,30.07,SE,129,3.0,8.0,85,0.00,,,0.35,,2013-06-10 01:12:00,
2013-06-09 21:22:00,80.0,75.0,30.08,SE,131,4.0,9.0,86,0.00,,,0.35,,2013-06-10 01:22:00,
2013-06-09 21:32:00,80.0,75.0,30.08,ESE,115,3.0,8.0,86,0.00,,,0.35,,2013-06-10 01:32:00,
2013-06-09 21:43:00,80.0,75.0,30.08,ESE,115,3.0,8.0,86,0.00,,,0.35,,2013-06-10 01:43:00,
2013-06-09 21:52:00,80.0,75.0,30.08,ESE,123,3.0,8.0,86,0.00,,,0.35,,2013-06-10 01:52:00,
2013-06-09 22:02:00,80.0,76.0,30.09,SE,128,3.0,8.0,87,0.00,,,0.35,,2013-06-10 02:02:00,
2013-06-09 22:12:00,80.0,76.0,30.09,SE,128,3.0,8.0,87,0.00,,,0.35,,2013-06-10 02:12:00,
2013-06-09 22:22:00,80.0,76.0,30.09,East,90,2.0,4.0,87,0.00,,,0.35,,2013-06-10 02:22:00,
2013-06-09 22:32:00,80.0,76.0,30.09,ESE,119,2.0,9.0,87,0.00,,,0.35,,2013-06-10 02:32:00,
2013-06-09 22:42:00,80.0,76.0,30.09,ESE,119,2.0,9.0,87,0.00,,,0.35,,2013-06-10 02:42:00,
2013-06-09 22:52:00,80.0,76.0,30.09,ESE,104,3.0,9.0,87,0.00,,,0.35,,2013-06-10 02:52:00,
2013-06-09 23:02:00,80.0,75.0,30.10,ESE,123,4.0,11.0,86,0.00,,,0.35,,2013-06-10 03:02:00,
2013-06-09 23:12:00,80.0,75.0,30.10,ESE,123,4.0,11.0,86,0.00,,,0.35,,2013-06-10 03:12:00,
2013-06-09 23:22:00,80.0,75.0,30.10,ESE,122,1.0,9.0,86,0.00,,,0.35,,2013-06-10 03:22:00,
2013-06-09 23:33:00,80.0,76.0,30.10,ESE,120,4.0,7.0,87,0.00,,,0.35,,2013-06-10 03:33:00,
2013-06-09 23:43:00,80.0,76.0,30.10,ESE,120,4.0,7.0,87,0.00,,,0.35,,2013-06-10 03:43:00,
2013-06-09 23:53:00,80.0,76.0,30.10,East,84,3.0,10.0,87,0.00,,,0.35,,2013-06-10 03:53:00,